Regional Weather Roundup
Issued by NWS Lake Charles, LA

Current Version | Previous Version | Text Only | Print | Product List | Glossary On
Versions: 1 2 3 4 5 6 7 8 9 10 11 12 13 14 15 16 17 18 19 20 21 22 23 24 25 26 27 28 29 30 31 32 33 34 35 36 37 38 39 40 41 42 43 44 45 46 47 48 49 50
000
ASUS44 KLCH 270010
RWRLCH
RWRLCH
REGIONAL WEATHER ROUNDUP
NATIONAL WEATHER SERVICE LAKE CHARLES LA
600 PM CST MON JAN 26 2015

Note: "fair" indicates few or no clouds below 12,000 feet with no
significant weather and/or obstructions to visibility.


ACROSS SOUTHEAST TEXAS

CITY           SKY/WX    TMP DP  RH WIND       PRES   REMARKS
BEAUMONT       PTCLDY    60  36  40 W6        30.12R
BEAUMONT CITY    N/A     59  39  47 CALM      30.13S
ORANGE         PTCLDY    57  42  56 CALM      30.13S
JASPER         CLEAR     56  39  51 CALM      30.13S
$$

ACROSS CENTRAL LOUISIANA

CITY           SKY/WX    TMP DP  RH WIND       PRES   REMARKS
LEESVILLE      CLEAR     56  37  49 SW1       30.09S
FULLERTON        N/A     54  38  54 CALM      30.07S
ALEXANDRIA INT CLEAR     54  37  52 CALM      30.08R
ESLER FIELD    CLEAR     53  37  54 W5        30.09R
DERIDDER         N/A     56  37  47 CALM      30.12S
OAKDALE        CLEAR     49  42  76 CALM      30.10S
OPELOUSAS        N/A     54  37  53 CALM      30.10S
$$

ACROSS SOUTHWEST AND SOUTH CENTRAL LOUISIANA

CITY           SKY/WX    TMP DP  RH WIND       PRES   REMARKS
SULPHUR        CLEAR     58  36  43 W5        30.12R
LAKE CHARLES   CLEAR     58  36  43 W3        30.11S
CHENNAULT INT  NOT AVBL
CAMERON PHI    CLEAR     55  48  76 W6        30.15R
DEQUINCY         N/A     53  40  60 CALM      30.11S
JENNINGS         N/A     57  40  52 W3        30.11S
LAFAYETTE      CLEAR     55  36  48 CALM      30.11S
NEW IBERIA     CLEAR     54  39  57 W5        30.12R
ABBEVILLE        N/A     53  38  55 CALM      30.11F
PATTERSON      CLEAR     55  34  44 NW6       30.13R
SALT POINT       N/A     54  45  71 W7        30.11R
$$

SELECTED SITES ACROSS THE REGION

CITY           SKY/WX    TMP DP  RH WIND       PRES   REMARKS
HOUSTON BUSH   MOCLDY    56  42  59 CALM      30.14R
HOUSTON HOBBY  MOCLDY    64  37  36 SW5       30.14S
GALVESTON      MOCLDY    58  47  66 S7        30.15S
COLLEGE STAT   MOCLDY    61  42  49 CALM      30.14R
CONROE         PTCLDY    55  45  68 CALM      30.15R
HUNTSVILLE     PTCLDY    60  37  42 SW3       30.13S
LUFKIN         CLEAR     61  36  39 W5        30.10F
SHREVEPORT     PTCLDY    59  34  39 SW3       30.06S
MONROE         CLEAR     53  34  48 SW7       30.06S
NATCHEZ MS     CLEAR     50  34  53 CALM      30.09R
BATON ROUGE    CLEAR     51  34  52 W6        30.10R
N.O. INTL ARPT PTCLDY    56  33  42 NW5       30.09R
SLIDELL        CLEAR     53  37  54 CALM      30.07R
$$

MARINE REPORTS

STATION/POSITION TIME  TEMP    WIND        PRES    VSBY  WAVE
                       AIR SEA DIR/SP/G                  HT/PER
                 (UTC) (F)     (DEG/KT/KT) (MB)    (MI)  (FT/S)
BUOY 30 S HIGH I 0000   57 57  220/  8/  8 1020.6R         1
SEA RIM ST PARK  0000   58     260/  7/  7 1020.9R
PORT ARTHUR      0000      52  280/  4/  6 1020.0S
SABINE PASS N    NOT AVBL
TEXAS POINT      NOT AVBL
CALCASIEU PASS   0000   55 54  270/  8/ 10   N/A
LK CHARLES BEACH 0000   60 53              1019.7S
MARSH ISLAND     2300   55     280/ 16/ 20   N/A
FRESH WATER LOCK 0000   53 54  240/  5/  7 1020.3R
AMERADA PASS     0000   53 48  270/  6/ 11 1019.9R
$$



USA.gov is the U.S. government's official web portal to all federal, state and local government web resources and services.